Погода в Нюрбе

Погода в Нюрбе : погода сейчас, прогноз погоды и архив. Всё, что Вы хотите узнать о погоде в Нюрбе!

Хотите узнать прогноз погоды в Нюрбе? Тогда Вам сюда: Погода в Нюрбе

Поиск расширенной информации на нашем сайте:

Другие новости

Новости СМИ2

Главная страница сайта

Новости сайта

03.07.2017

Напоминаем, что на нашем специализированном сайте Метеоцентр.Азия вы можете получить высокодетализированные автоматические прогнозы погоды по пунктам России, СНГ и мира в авиационном формате (включающие направление и скорость ветра, видимость, явления погоды, количество и форму облачности, нижнюю и верхнюю границу облачности).

Рекомендуем: Лечебное голодание

Погода в Нюрбе - сегодня

Время (UTC), дата Ветер
(°,м/с) 
Видим.   Явления Облачность Т
(°С)
Тd
(°С)
f(%) Тe
(°С)
Pmin
(гПа)
dP
(гПа)
Po
(мм)
O2
(г/м3)
Тmin Tmax R s Состояние
почвы
09 21.11.17 260 (З) 10 км  слаб. снег  10/8 480 м средняя 
[St|As op]
-18.5 -21.1 80 -21  1009.6  0.9  745  324           
12 21.11.17 250 (З) 4000 м  слаб. снег  10/5 300 м средняя 
[St|As op]
-16.6 -18.5 85 -20  1009.9  0.4  745  321    -16.6     
15 21.11.17 280 (З) 4000 м  слаб. снег  10/5 300 м средняя 
[St|As op]
-15.1 -17 85 -17  1010.2  0.5  746  320           
18 21.11.17 320 (СЗ) 4000 м  слаб. снег  10/0 средняя 
[As op]
-14.1 -16.1 85 -16  1010.9  0.8  746  318           
21 21.11.17 330 (СЗ) 4000 м  слаб. снег  10/0 средняя 
[As op]
-13.7 -15.7 85 -17  1011.9  747  318           
00 22.11.17 330 (СЗ) 10 км  слаб. снег  10/5 600 м средняя 
[Sc|As op]
-13.2 -15.9 80 -17  1013.5  1.5  748  318  -18.5    0.6  24  равномерный
сухой снег
100% 
03 22.11.17 310 (СЗ) 10 км  слаб. снег  10/5 600 м средняя 
[Sc|As op]
-13.4 -15.4 85 -17  1014.1  0.6  749  319           
06 22.11.17 320 (СЗ) 20000 м  в посл. час снег  10/4 600 м средняя 
[Sc|As trans]
-13.4 -16.1 80 -17  1015.2  1.1  750  319           
09 22.11.17 310 (СЗ) 20000 м  слаб. снег  10/5 600 м средняя 
[Sc|As op]
-13.5 -15.5 85 -16  1016.7  1.5  751  320           
12 22.11.17 350 (С) 10 км  слаб. снег  10/5 600 м средняя 
[Sc|As op]
-16.5 -19.1 80 -20  1019.6  2.6  753  324    -13.1  0.6     
15 22.11.17 350 (С) 10 км  слаб. снег  10/0 средняя 
[As op]
-20.4 -23.4 77 -25  1022.1  2.3  754  330           
18 22.11.17 330 (СЗ) 20000 м  {снег}  10/0 средняя 
[As op]
-24.2 -26.6 81 -27  1023.7  1.5  755  336           
21 22.11.17 320 (СЗ) 20000 м    10/0 средняя, верхняя 
[As trans|Cs]
-25.8 -28.2 80 -29  1024.8  0.7  756  338           
00 23.11.17 340 (С) 10 км  слаб. снег  10/0 средняя, верхняя 
[As trans|Cs]
-27.2 -29.6 80 -31  1025.5  0.6  756  340  -27.9    0.2  24  равномерный
сухой снег
100% 
03 23.11.17 010 (С) 20000 м  {снег}  4/0 верхняя 
[Cs]
-27.1 -30.1 76 -28  1026.3  0.8  757  341  -28         
06 23.11.17 020 (С) 20000 м  {снег}  6/0 средняя 
[As trans]
-27.1 -30.9 70 -31  1027.4  1.1  758  341           
09 23.11.17 320 (СЗ) 20000 м    4/0 средняя 
[As trans]
-29.2 -32.2 75 -30  1028.7  1.2  759  344           
12 23.11.17 310 (СЗ) 20000 м    3/0 средняя 
[Ac trans]
-29.9 -33 74 -35  1028.7  759  345    -26.6  0.0     
15 23.11.17 310 (СЗ) 20000 м    4/0 средняя 
[Ac trans]
-32.4 -35.5 74 -36  1028.9  759  349           
18 23.11.17 310 (СЗ) 20000 м    4/0 средняя 
[Ac trans]
-30.9 -34.1 73 -32  1029  0.2  759  347           
21 23.11.17 310 (СЗ) 20000 м    4/0 средняя 
[Ac trans]
-33.1 -36 75 -34  1028.9  -0.1  759  350           
00 24.11.17 280 (З) 20000 м    4/0 верхняя 
[Ci fib]
-35 -38 74 -36  1029  759  353  -35      24  равномерный
сухой снег
100% 
03 24.11.17 300 (СЗ) 20000 м    4/0 верхняя 
[Ci fib]
-31.9 -35 74 -33  1028.5  -0.3  758  348  -36.8         
06 24.11.17 300 (СЗ) 20000 м    10/0 средняя, верхняя 
[As trans|Cs]
-29.9 -33 74 -31  1027.6  -0.7  758  345           
09 24.11.17 280 (З) 20000 м    10/0 средняя, верхняя 
[As trans|Cs]
-31.4 -34.2 76 -32  1027.5  -0.1  758  347           
Время (UTC), дата Ветер
(°,м/с) 
Видим.   Явления Облачность Т
(°С)
Тd
(°С)
f(%) Тe
(°С)
Pmin
(гПа)
dP
(гПа)
Po
(мм)
O2
(г/м3)
Тmin Tmax R s Состояние
почвы

Для получения пояснительной информации подведите курсор к названию столбца.

ПОГОДА в Нюрбе - архив

Всё, что Вы хотите узнать о погоде в Нюрбе - удобно и подробно!

Выберите нужную дату (начиная с 1 января 2015* года) и нажмите кнопку "Найти".
Будут отображены архивные сводки погоды по пункту Нюрба, начиная с указанной даты.


Отображать данные в формате CSV (для использования в таблицах Excel)


Внимание! Наш архив погоды предназначен исключительно для личного некоммерческого использования в познавательных целях. Если Вам необходимы официальные справки о состоянии погоды (для производственных, юридических, коммерческих и т.п. целей), обращайтесь в органы Росгидромета.

*Примечание: данная дата относится к архиву по метеостанциям СССР (Россия, СНГ, Балтия).
Архив по метеостанциям Зарубежной Европы и Азии (кроме Китая) хранится 10 дней, по другим регионам земного шара (Китай, Африка, Америка, Австралия, Океания) - 1 день.

Нюрба - район местоположения метеостанции


Название, широта, долгота, высота метеостанции:
Нюрба 63.3°ш. 118.3°д. 119 м над ур. моря [Российская Федерация]

Дополнительная информация

В oтличие oт бoльшинства пoгoдных сайтoв мы публикуем пoдрoбную метеoинфoрмацию в детальнoм прoфессиoнальнoм фoрмате.

Характеристики температуры и влажнoсти вoздуха измеряются на высoте 2 м в тени вдали oт зданий и деревьев.
Скoрoсть ветра измеряется на высoте 10 м (на урoвне рoста челoвека скoрoсть ветра ниже в 1.5-2 раза). Если метеoстанция нахoдится в гoрoде или в лесу, тo скoрoсть ветра занижена на 2-4 м/с пo сравнению с oткрытым местoм. Скoрoсть ветра над акватoриями крупных рек и oзёр, а также на вершинах хoлмoв на 2-5 м/с выше, чем в oбычных услoвиях.
Атмoсфернoе давление в разных тoчках местнoсти мoжет значительнo oтличаться oт давления на метеoстанции, в зависимoсти oт услoвий рельефа (при пoдъёме на 10 м давление пoнижается примернo на 1 мм рт.ст.).